Weather History for KLLQ - November, 2013

Change the Weather History Date:

Monday, November 4, 2013

  Actual Average Record
Temperature  
Mean Temperature 57 °F -  
Max Temperature 68 °F 66 °F 84 °F (2003)
Min Temperature 46 °F 42 °F 19 °F (1991)
Degree Days  
Heating Degree Days 8    
Growing Degree Days 7 (Base 50)    
Moisture  
Dew Point 48 °F    
Average Humidity 74    
Maximum Humidity 87    
Minimum Humidity 52    
Precipitation  
Precipitation 0.00 in - - ()
Sea Level Pressure  
Sea Level Pressure 30.19 in    
Wind  
Wind Speed 3 mph (SE)    
Max Wind Speed 13 mph    
Max Gust Speed 17 mph    
Visibility 10 miles    
Events Rain    
Averages and records for this station are not official NWS values.
T = Trace of Precipitation, MM = Missing Value Source: NWS Daily Summary

Daily Weather History Graph

Daily Weather History Graph

Search for Another Location

Airport or City:

Trip Planner

Search our weather history database for the weather conditions in past years. The results will help you decide how hot, cold, wet, or windy it might be!

Date:

Astronomy

Nov. 04, 2013 Rise Set
Actual Time 6:28 AM CST 5:11 PM CST
Civil Twilight 6:03 AM CST 5:37 PM CST
Nautical Twilight 5:33 AM CST 6:07 PM CST
Astronomical Twilight 5:04 AM CST 6:36 PM CST
Moon 7:36 AM CST (11/4) 6:20 PM CST (11/4)
Length of Visible Light 11h 34m
Length of Day
10h 42m
New Moon, 2% of the Moon is Illuminated
Nov 4
New Moon
Nov 9
First Quarter
Nov 17
Full
Nov 25
Last Quarter
Dec 2
New

Hourly Weather History & Observations

Time (CST) Temp. Dew Point Humidity Pressure Visibility Wind Dir Wind Speed Gust Speed Precip Events Conditions
12:53 AM 46.0 °F 42.1 °F 86% 30.17 in 10.0 mi Calm Calm - N/A   Clear
1:53 AM 46.9 °F 43.0 °F 86% 30.16 in 10.0 mi Calm Calm - N/A   Clear
2:53 AM 46.9 °F 43.0 °F 86% 30.16 in 10.0 mi Calm Calm - 0.00 in   Clear
3:53 AM 48.0 °F 43.0 °F 83% 30.17 in 10.0 mi SSE 3.5 mph - 0.00 in Rain Light Rain
4:53 AM 46.9 °F 43.0 °F 86% 30.18 in 10.0 mi SSE 3.5 mph - 0.00 in   Clear
5:53 AM 48.0 °F 44.1 °F 86% 30.19 in 10.0 mi SSE 4.6 mph - 0.00 in Rain Light Rain
6:53 AM 48.9 °F 44.1 °F 83% 30.21 in 10.0 mi Calm Calm - 0.00 in   Clear
7:53 AM 50.0 °F 46.0 °F 86% 30.23 in 10.0 mi ESE 3.5 mph - 0.00 in   Clear
8:53 AM 55.0 °F 48.0 °F 77% 30.24 in 10.0 mi ESE 4.6 mph - 0.00 in   Clear
9:53 AM 60.1 °F 46.9 °F 62% 30.24 in 10.0 mi SSE 9.2 mph - 0.00 in Rain Light Rain
10:53 AM 64.9 °F 48.0 °F 54% 30.24 in 10.0 mi SSE 11.5 mph 16.1 mph 0.00 in   Clear
11:53 AM 64.0 °F 48.0 °F 56% 30.20 in 10.0 mi SSE 12.7 mph 17.3 mph 0.00 in   Clear
12:53 PM 66.0 °F 48.9 °F 54% 30.17 in 10.0 mi SE 9.2 mph - 0.00 in Rain Light Rain
1:53 PM 68.0 °F 50.0 °F 52% 30.17 in 10.0 mi SE 11.5 mph 16.1 mph 0.00 in   Clear
2:53 PM 66.9 °F 51.1 °F 57% 30.16 in 10.0 mi SE 6.9 mph - 0.00 in Rain Light Rain
3:53 PM 66.0 °F 52.0 °F 60% 30.17 in 10.0 mi SE 4.6 mph - 0.00 in   Clear
4:53 PM 64.0 °F 54.0 °F 70% 30.17 in 10.0 mi Calm Calm - 0.00 in Rain Light Rain
5:53 PM 61.0 °F 53.1 °F 75% 30.17 in 10.0 mi ENE 5.8 mph - 0.00 in   Clear
6:53 PM 61.0 °F 52.0 °F 72% 30.19 in 10.0 mi Calm Calm - 0.00 in   Clear
7:53 PM 59.0 °F 52.0 °F 78% 30.19 in 10.0 mi East 4.6 mph - 0.00 in   Clear
8:53 PM 57.9 °F 52.0 °F 81% 30.21 in 10.0 mi Calm Calm - 0.00 in Rain Light Rain
9:53 PM 57.0 °F 53.1 °F 87% 30.21 in 10.0 mi East 5.8 mph - 0.00 in   Mostly Cloudy
10:53 PM 57.0 °F 52.0 °F 83% 30.21 in 10.0 mi East 3.5 mph - 0.00 in Rain Light Rain
11:53 PM 57.9 °F 52.0 °F 81% 30.20 in 10.0 mi East 4.6 mph - 0.00 in Rain Light Rain